This is the latest recevied weather packets stored in our database for station/object AB1AU. If no packets are shown the sender has not sent any weather packets the latest 10 day(s).
| Time | Temp. | Humidity | Pressure | Rain* | Wind** | Luminosity | Snow |
|---|---|---|---|---|---|---|---|
| 1777832545 | 7.78° C | 82% | 1005.4 hPa | 0 mm | - | 181 W/m² | - |
| 1777832242 | 7.78° C | 82% | 1005.4 hPa | 0 mm | - | 170 W/m² | - |
| 1777831939 | 7.78° C | 83% | 1005.3 hPa | 0 mm | - | 153 W/m² | - |
| 1777831635 | 7.78° C | 85% | 1005.5 hPa | 0 mm | - | 147 W/m² | - |
| 1777831334 | 7.22° C | 85% | 1005.5 hPa | 0 mm | - | 146 W/m² | - |
| 1777831030 | 7.22° C | 85% | 1005.4 hPa | 0 mm | - | 154 W/m² | - |
| 1777830728 | 7.22° C | 87% | 1005.5 hPa | 0 mm | - | 138 W/m² | - |
| 1777830423 | 7.22° C | 88% | 1005.6 hPa | 0 mm | - | 177 W/m² | - |
| 1777830121 | 6.67° C | 87% | 1005.5 hPa | 0 mm | - | 174 W/m² | - |
| 1777829816 | 6.67° C | 88% | 1005.3 hPa | 0 mm | - | 177 W/m² | - |
| 1777829512 | 6.67° C | 89% | 1005.5 hPa | 0 mm | - | 187 W/m² | - |
| 1777829210 | 6.67° C | 89% | 1005.5 hPa | 1.78 mm | - | 173 W/m² | - |
| 1777828907 | 6.67° C | 90% | 1005.6 hPa | 1.78 mm | - | 147 W/m² | - |
| 1777828603 | 6.67° C | 89% | 1005.7 hPa | 0 mm | - | 171 W/m² | - |
| 1777828301 | 6.67° C | 90% | 1005.6 hPa | 0 mm | - | 189 W/m² | - |
| 1777827998 | 6.67° C | 90% | 1005.6 hPa | 0 mm | - | 201 W/m² | - |
| 1777827694 | 6.67° C | 91% | 1005.6 hPa | 0 mm | - | 215 W/m² | - |
| 1777827391 | 6.11° C | 91% | 1005.8 hPa | 0 mm | - | 217 W/m² | - |
| 1777827087 | 6.11° C | 92% | 1005.6 hPa | 1.27 mm | - | 194 W/m² | - |
| 1777826784 | 6.11° C | 92% | 1005.6 hPa | 1.27 mm | - | 153 W/m² | - |
| 1777826481 | 6.11° C | 92% | 1005.8 hPa | 0 mm | - | 118 W/m² | - |
| 1777826178 | 6.11° C | 92% | 1005.6 hPa | 0 mm | - | 125 W/m² | - |
| 1777825876 | 6.11° C | 92% | 1005.6 hPa | 1.78 mm | - | 122 W/m² | - |
| 1777825573 | 5.56° C | 93% | 1005.8 hPa | 1.78 mm | - | 125 W/m² | - |
| 1777825271 | 5.56° C | 92% | 1005.8 hPa | 0 mm | - | 124 W/m² | - |
* Rain latest hour (hover to see other rain measurements)
** Current wind speed in m/s (hover to see current wind gust speed)